Powrót do katalogu

ONEWEB-0676

AktywnyŁącznośćPO
NORAD 56712·PAYLOAD·🇬🇧 United Kingdom

Wystrzelony May 20, 2023 z Vandenberg Space Force Base

Loading…

Następne Przeloty (najbliższe 24 godziny)

TLE

ŚwieżeSource: CelesTrak SupGP

Epoka: Sep 14, 2026, 19:33 UTC

1 56712C 23068C   26257.81474954  .00001978  00000+0  51797-2 0  2576
2 56712  87.9147 210.9837 0002349  85.5686 300.5391 13.16591319    16

Śledź ONEWEB-0676 w czasie rzeczywistym z AllMySat

Download on the App Store